Wind_Speed
10 11 12 13 16 14 12 10 10 10 8 7 9 7 2 4 2 7 5 1 5 10 7 4 5 6 8 10 10 10 10 10 10 10 11 14 17 18 19 19 18 20 20 19 19 20 19 17 15 13 12 10 10 10 10 9 10 11 13 16 19 21 27 29 27 26 24 23 24 24 26 27 26 23 22 22 21 20 20 18 16 17 18 18 19 19 17
12 14 14 14 15 16 12 8 7 9 9 7 6 4 1 5 2 8 8 4 7 12 8 6 6 7 9 11 12 12 12 12 12 12 12 14 17 18 18 18 19 20 21 21 21 19 17 15 14 13 13 12 11 11 10 9 9 9 10 13 15 16 18 20 21 21 19 21 24 24 21 20 17 15 14 16 17 18 18 19 20 20 20 20 20 18 15
10 12 13 12 13 13 9 6 6 7 7 3 1 1 1 1 5 11 10 7 10 10 6 5 5 7 9 11 12 13 14 15 16 16 17 17 17 16 16 17 19 20 21 22 23 20 17 16 16 16 16 15 13 12 11 10 9 10 11 12 12 11 12 13 15 15 15 16 17 14 12 11 11 11 11 11 12 13 13 15 18 19 19 20 20 19 18
9 10 10 10 12 12 8 6 5 5 5 3 3 4 3 4 9 12 10 9 11 9 7 8 9 10 11 12 13 13 13 14 16 17 18 18 17 17 18 18 18 19 21 23 24 22 20 20 20 18 17 17 16 15 12 10 10 11 12 12 13 13 13 13 14 14 13 14 13 11 12 12 11 11 13 13 12 13 14 15 15 16 16 17 17 17 18
7 7 9 9 10 9 6 5 4 4 2 1 2 3 4 5 8 9 9 10 11 9 9 11 12 12 13 13 14 14 14 14 16 17 17 16 17 18 20 20 19 20 22 24 25 25 23 23 22 21 20 20 19 18 15 13 13 13 14 14 15 15 14 14 14 15 15 15 14 13 14 14 13 14 14 14 14 15 16 16 17 18 18 19 20 21 21
6 6 8 7 5 3 2 1 2 1 1 3 3 4 6 6 8 9 10 13 12 9 10 12 12 11 12 12 13 14 15 16 17 19 19 16 13 13 17 20 22 24 24 26 28 28 28 27 24 22 22 22 22 20 18 17 18 19 18 17 16 16 15 15 15 16 17 16 15 15 15 15 15 15 16 16 17 17 18 19 20 22 22 23 24 24 24
7 9 9 4 2 7 9 6 3 2 1 3 2 5 9 10 11 12 14 15 14 11 9 10 9 8 8 9 11 12 14 15 17 19 19 17 13 9 9 13 18 23 27 29 30 31 31 30 28 24 22 21 22 22 21 22 23 23 21 20 18 17 17 17 18 19 19 19 18 18 18 18 18 19 20 21 20 19 19 19 19 20 21 22 22 22 22
10 11 11 6 4 11 14 10 7 6 5 4 4 6 9 12 14 15 15 15 14 13 11 10 10 8 7 8 9 11 12 12 13 16 18 19 19 13 10 10 13 20 26 29 32 32 31 31 30 28 26 24 23 23 23 24 25 24 23 22 21 20 20 20 20 21 22 22 22 22 21 21 21 21 20 20 19 18 17 17 17 18 20 21 21 22 22
14 14 14 11 9 11 14 13 11 11 10 9 9 8 8 9 12 13 13 13 13 14 14 13 13 12 10 10 10 11 12 10 9 11 13 16 18 17 16 16 17 21 24 23 25 27 28 30 31 30 29 27 26 26 27 27 26 25 25 24 23 22 22 21 21 22 22 22 23 23 23 22 22 21 19 19 18 18 18 18 19 20 21 22 23 23 23
17 16 13 10 8 8 11 14 15 14 14 11 10 9 8 7 9 10 11 12 12 14 15 16 16 15 15 14 13 12 12 12 11 11 12 15 17 18 20 21 21 22 23 21 22 25 28 33 34 32 30 29 29 30 31 31 28 25 25 25 24 24 23 23 23 23 23 23 24 24 23 23 22 22 21 21 21 21 21 21 22 23 24 24 24 24 25
19 19 13 8 7 8 11 15 15 14 13 11 8 8 7 7 10 10 10 12 14 14 15 16 16 16 18 19 18 15 13 13 14 15 15 16 18 19 20 21 21 21 22 23 24 26 29 32 34 34 33 31 31 31 31 31 28 25 23 23 24 24 25 25 25 25 25 25 24 24 24 24 24 24 24 24 23 23 23 24 25 26 26 26 25 25 25
19 20 15 8 6 8 11 14 15 13 13 13 9 5 5 9 12 12 11 12 14 14 14 15 15 15 17 19 20 19 17 17 17 18 18 19 20 20 21 21 21 21 22 23 25 27 28 28 30 31 30 27 26 27 28 28 27 25 24 24 23 23 24 24 25 25 25 25 24 24 24 24 24 25 26 26 25 25 25 26 27 28 28 27 27 26 26
13 14 12 7 5 8 10 12 13 13 13 13 9 6 7 10 12 12 13 15 15 15 16 18 18 18 18 20 20 20 20 19 19 20 20 20 21 21 21 22 22 23 24 24 25 26 27 29 30 30 28 25 24 25 26 27 27 26 26 26 25 24 25 25 25 25 25 25 25 25 25 24 24 25 27 28 29 28 28 28 29 29 29 29 28 28 27
5 6 8 7 5 6 7 8 10 11 10 9 8 9 12 13 13 15 17 18 19 19 20 21 21 21 21 22 23 23 23 23 23 24 24 25 25 25 25 25 25 26 27 27 27 27 28 30 31 31 31 28 25 26 28 30 30 29 27 27 27 27 28 27 27 26 26 27 27 28 28 27 27 28 29 30 31 31 31 32 32 32 32 31 31 30 30
2 4 5 5 2 2 4 6 7 6 7 7 8 10 12 14 15 16 18 19 21 22 22 23 23 24 25 26 28 29 29 30 30 30 31 32 33 33 34 34 34 34 34 32 32 31 30 31 32 33 33 31 28 27 28 30 30 29 27 26 28 30 31 31 30 30 30 30 29 29 30 30 30 31 31 32 32 32 33 34 34 35 34 33 33 32 31
2 4 6 5 3 1 1 3 3 2 2 5 7 9 11 14 16 18 19 21 23 25 26 27 28 29 31 32 34 35 35 36 36 37 38 38 39 40 42 42 43 44 44 43 41 38 36 36 36 36 37 37 35 33 31 31 30 30 28 26 27 30 32 34 34 34 34 34 33 32 32 33 34 34 33 33 33 33 34 35 36 37 36 34 32 30 29
4 7 10 9 5 2 2 2 3 3 3 4 7 10 13 16 19 21 22 24 25 27 28 30 31 32 34 35 37 38 39 40 40 39 39 39 40 40 41 41 42 42 44 46 47 47 46 45 43 42 42 43 43 41 39 36 35 34 32 29 28 28 31 33 35 35 36 37 38 37 37 38 37 36 35 34 33 34 34 35 36 36 35 33 30 27 26
4 9 11 8 4 2 2 4 6 6 8 10 13 16 18 20 22 24 25 26 26 27 29 30 32 33 34 35 36 36 37 38 38 37 37 36 36 37 37 37 37 37 38 41 43 47 49 50 50 49 47 47 47 47 45 42 40 39 37 35 33 31 31 33 34 36 38 39 40 40 40 39 38 37 36 36 35 36 36 36 35 34 31 29 27 26 25
4 6 7 6 5 6 7 9 11 12 15 17 19 20 21 22 24 25 26 27 28 29 30 32 33 34 34 35 36 36 36 37 36 36 36 36 36 36 37 37 37 37 38 38 39 41 42 44 46 47 47 46 47 48 47 45 43 42 40 39 38 37 36 35 35 36 38 40 40 40 40 40 39 39 39 39 38 37 36 35 33 30 26 24 24 25 26
5 5 6 7 9 10 12 14 16 18 20 21 22 23 24 25 26 27 28 28 29 30 31 33 34 34 35 35 36 36 36 37 37 37 37 37 37 37 38 38 38 38 38 38 38 39 39 38 39 40 41 42 44 45 46 45 43 42 41 40 40 40 39 38 38 37 38 40 41 42 42 42 41 41 41 40 38 36 34 31 29 27 25 24 25 25 26
8 9 9 10 11 13 14 16 18 21 22 24 25 25 26 27 29 29 29 29 29 31 32 32 33 33 33 34 35 36 37 37 38 39 39 39 39 38 38 37 37 37 37 37 37 38 38 37 37 38 38 38 39 42 44 44 42 41 39 38 39 38 38 38 39 40 41 41 42 43 44 43 42 41 40 40 38 36 34 31 29 27 26 26 26 26 28
10 11 12 12 14 15 16 17 20 23 24 25 26 26 27 28 30 30 29 28 29 30 31 32 32 33 34 34 35 36 37 38 38 39 39 40 40 39 38 37 36 36 36 35 36 37 37 36 37 38 38 37 37 38 41 44 45 44 41 39 38 37 37 37 38 40 43 43 43 43 43 43 42 41 40 39 37 35 33 30 29 28 28 28 27 26 27
10 11 13 14 15 17 19 21 23 25 26 26 27 27 27 27 27 28 28 28 28 29 30 32 33 34 35 35 35 35 36 36 37 38 38 39 38 38 38 37 37 36 35 35 36 37 37 37 37 37 37 37 37 37 38 42 46 48 48 45 42 40 40 40 40 41 43 43 41 40 41 43 43 41 39 38 36 34 31 30 29 30 31 31 28 26 25
11 12 14 16 17 19 22 23 25 26 26 25 25 25 24 24 25 26 27 28 29 29 30 31 32 33 33 33 33 34 34 34 35 35 36 37 37 36 36 37 37 36 35 35 36 37 38 38 38 37 37 37 37 37 37 39 42 47 51 52 49 46 43 42 41 41 41 41 41 41 42 43 42 40 39 38 37 34 32 31 31 32 32 30 28 25 24
14 16 17 18 19 21 22 23 24 25 24 23 22 22 22 24 25 26 27 28 29 30 30 30 30 30 31 31 32 33 33 33 33 34 36 36 36 36 36 36 35 35 34 34 34 35 36 37 37 37 37 36 36 37 38 38 40 43 48 52 54 53 49 46 43 42 41 42 44 44 44 44 43 41 39 39 38 35 33 32 31 31 29 27 26 24 23
17 17 17 18 19 21 23 23 23 23 22 21 21 22 22 24 24 25 26 27 28 28 28 28 29 29 30 31 31 32 33 33 33 35 37 38 37 37 37 36 36 35 34 34 34 34 35 35 35 35 35 34 34 35 36 38 40 42 44 47 51 53 54 52 49 46 44 44 45 45 44 44 44 42 40 38 36 33 31 30 30 28 26 26 25 23 23
17 16 17 18 19 21 22 21 20 20 20 20 21 22 22 23 24 24 25 26 26 26 27 28 29 29 29 29 29 29 30 31 32 33 33 33 32 32 32 32 32 31 30 30 30 31 33 33 33 34 34 33 33 34 35 37 39 41 42 43 45 47 50 51 51 49 46 45 45 45 43 43 43 40 37 34 32 31 30 29 28 27 26 25 24 22 22
19 18 18 19 20 20 19 19 18 18 19 19 20 21 21 21 22 23 23 24 25 26 27 27 27 28 27 26 25 26 25 24 24 23 22 22 23 23 23 23 22 22 21 22 23 25 27 29 30 32 32 32 32 34 34 35 37 38 40 41 42 43 44 45 47 47 46 45 45 44 42 40 39 36 33 31 29 29 28 28 27 26 26 25 22 21 20
19 19 19 19 19 19 18 18 18 18 18 18 19 19 18 18 20 21 23 23 24 25 25 24 23 24 23 22 21 20 18 16 16 16 15 15 15 14 13 12 11 10 11 13 14 16 19 21 24 25 25 25 26 28 29 31 33 34 35 36 39 41 42 43 44 44 43 42 41 41 40 38 35 33 31 29 28 27 26 25 24 23 22 21 20 18 17
18 19 19 18 18 17 17 18 18 18 17 17 18 17 17 18 20 20 21 22 22 21 20 20 20 20 21 20 17 15 14 13 13 11 8 8 10 12 14 13 11 8 7 7 8 11 14 16 18 19 19 19 19 20 22 24 26 27 29 30 32 34 36 38 39 39 39 39 39 39 38 36 34 32 30 28 26 25 24 22 20 19 19 19 18 17 15
18 18 18 17 17 17 18 18 17 16 16 17 17 17 17 18 18 17 17 17 17 16 17 18 18 19 19 16 12 10 10 9 6 6 10 15 18 19 18 17 15 14 12 11 10 11 13 15 18 19 19 18 16 15 15 17 19 21 22 24 26 28 30 32 34 36 36 37 37 36 35 33 32 29 28 26 24 22 21 19 18 17 16 16 15 14 13
17 17 17 17 18 17 16 15 14 14 15 15 15 15 15 16 15 15 15 14 14 14 15 16 16 17 18 15 10 7 6 5 7 11 15 18 19 18 17 18 18 16 13 10 10 11 11 12 15 16 16 16 13 11 11 13 14 15 15 18 21 23 25 28 30 31 31 31 31 31 31 31 30 28 26 25 23 21 19 17 15 14 14 12 12 12 13
16 15 16 16 16 13 11 10 11 11 11 12 12 13 13 14 14 14 13 13 13 13 13 13 14 16 18 15 10 7 6 7 9 12 15 17 16 15 17 19 20 18 15 13 14 15 16 18 19 19 17 14 10 7 6 7 8 8 9 10 13 16 20 23 24 24 24 24 23 22 22 23 24 25 25 25 24 22 19 17 15 16 15 12 11 13 14
14 14 15 13 11 9 8 8 8 8 8 9 10 11 11 12 12 12 11 11 11 11 11 11 12 16 18 15 10 8 8 10 12 14 15 14 13 13 15 18 19 20 19 18 18 20 22 25 26 24 21 17 11 5 3 4 4 3 3 3 5 10 14 16 16 17 18 19 18 17 17 19 21 22 22 22 21 20 19 19 18 17 15 13 14 15 16
13 14 13 10 7 7 7 6 5 6 7 8 8 9 9 9 10 10 9 9 8 9 9 10 11 15 17 14 10 10 11 11 13 14 13 11 9 9 11 15 18 18 18 18 20 23 25 27 29 29 26 20 13 10 11 13 13 12 11 11 11 12 13 14 16 17 17 18 19 18 18 19 20 19 18 17 18 18 19 20 18 16 16 17 18 17 15
12 12 10 7 5 5 4 3 3 4 6 6 7 7 8 8 9 9 10 10 10 9 9 10 11 14 16 15 11 10 10 11 11 11 10 8 6 6 9 13 16 16 16 17 20 23 26 26 27 29 29 25 20 15 14 13 13 13 14 15 16 16 16 16 17 17 17 17 18 18 18 19 19 18 17 18 18 19 20 19 18 17 18 17 16 14 13
11 10 7 5 4 4 3 2 3 4 4 5 6 7 9 9 10 11 13 14 14 13 13 13 13 14 16 17 15 12 10 10 10 9 8 6 6 7 9 12 15 15 16 18 20 22 25 26 26 26 28 29 27 23 20 16 15 16 17 17 17 17 18 17 17 17 16 17 19 20 21 21 21 21 21 20 20 20 19 18 17 17 16 15 13 13 13
10 8 5 4 4 4 2 2 3 3 3 4 6 8 8 9 10 12 13 14 16 17 17 17 17 16 15 16 17 17 15 12 10 10 10 9 9 10 11 11 13 14 16 18 19 20 23 25 25 25 25 27 29 29 27 24 22 21 21 21 19 18 18 18 19 19 20 21 22 23 24 24 23 22 21 20 19 18 17 15 14 14 13 13 12 12 13
10 7 5 4 4 3 1 1 1 2 3 4 5 6 6 8 9 11 12 13 15 16 17 19 19 19 17 16 16 17 18 16 13 13 13 13 12 12 11 10 11 13 15 16 16 17 20 22 23 24 24 25 25 26 27 26 25 25 26 26 25 24 23 23 23 23 24 24 24 24 24 23 23 22 21 19 18 16 14 13 12 12 13 13 14 13 13
8 7 5 4 4 3 1 2 3 4 5 4 4 4 5 6 8 9 10 12 13 14 15 17 18 19 19 18 16 16 17 16 15 14 13 12 11 11 11 11 12 13 14 14 14 15 17 19 19 21 24 24 23 23 23 23 23 24 26 27 27 27 26 26 25 25 25 25 25 25 24 23 22 20 19 17 15 14 13 13 13 13 14 14 13 12 12
7 6 5 4 4 3 2 3 4 7 7 4 3 3 4 5 6 7 8 10 11 12 13 14 15 16 17 17 17 17 16 15 15 14 12 10 9 9 10 11 12 13 13 13 13 13 14 15 16 18 21 23 24 23 21 19 19 21 23 25 26 25 24 24 25 25 25 25 25 23 21 19 18 17 16 15 14 14 13 13 13 12 12 11 10 10 9
7 6 5 4 4 3 4 5 7 9 8 5 4 3 3 3 4 5 6 8 9 10 11 11 12 14 14 15 15 15 15 15 15 14 12 10 10 10 11 11 12 13 13 13 11 10 10 11 12 15 17 19 21 22 21 20 18 18 19 20 20 21 21 21 21 21 20 20 19 18 16 15 14 14 14 14 14 13 13 12 12 11 10 10 9 8 8
8 6 5 5 5 4 4 6 8 10 10 8 5 4 3 2 2 3 4 5 7 8 9 10 11 12 13 13 14 14 13 13 13 13 12 12 11 11 12 13 14 15 14 13 12 10 8 7 8 11 13 14 15 16 17 18 17 16 15 15 15 15 15 15 14 14 14 13 12 12 12 12 12 12 13 13 13 12 12 12 11 11 10 9 9 8 7
8 6 5 5 6 5 4 5 7 10 11 10 7 6 5 4 3 2 2 3 4 6 8 10 11 12 12 13 13 13 13 13 13 13 13 13 12 12 13 14 15 15 15 15 14 13 10 8 7 8 9 10 11 11 12 13 13 13 13 12 11 11 10 10 10 9 9 9 9 9 10 10 10 11 11 12 11 11 11 11 11 10 10 9 8 7 6
8 7 7 7 7 6 5 5 7 10 12 11 9 7 6 6 5 4 4 4 4 5 6 8 9 10 11 12 14 15 15 15 15 15 14 14 13 14 15 15 15 15 15 15 14 14 12 11 10 9 8 8 7 7 7 8 8 9 8 8 7 7 6 6 7 7 7 7 7 8 8 8 9 10 10 10 10 10 10 10 10 9 9 8 7 6 5
9 8 8 8 8 8 7 5 6 9 12 13 11 9 7 8 7 6 6 5 5 5 5 6 7 8 9 11 13 14 15 16 16 16 15 15 15 16 17 17 17 16 16 16 15 14 14 13 13 12 10 8 7 6 5 4 4 4 3 3 3 4 4 5 5 5 6 6 6 6 6 7 7 9 9 9 9 9 9 9 9 8 7 6 5 5 4
11 10 9 9 9 10 9 7 6 9 12 14 13 10 9 9 9 8 7 5 5 4 4 4 5 5 6 7 9 11 12 14 15 15 16 17 18 19 19 19 18 18 18 17 16 16 15 15 14 13 11 10 9 8 6 5 5 4 3 3 3 3 4 4 4 4 4 5 6 7 7 7 7 8 8 8 8 8 8 7 7 6 5 4 4 3 2
11 11 10 10 11 12 12 10 8 9 12 14 14 12 11 11 10 9 7 6 5 4 4 3 3 3 3 4 5 6 8 10 12 13 15 16 18 19 19 19 20 20 19 19 18 17 17 16 15 14 13 12 11 9 8 7 6 5 5 4 4 3 3 3 3 3 3 5 6 7 8 8 9 9 8 8 8 7 7 6 6 5 4 4 3 3 2
12 11 11 11 12 13 14 12 9 9 11 13 14 13 12 13 12 10 8 6 6 5 4 3 3 2 2 2 2 2 4 6 8 9 11 13 15 16 17 18 19 20 20 20 20 19 19 18 17 15 14 13 12 11 10 9 8 6 5 5 4 3 2 2 2 1 1 2 3 5 6 7 7 8 8 8 8 8 7 7 7 6 6 6 5 5 5
11 11 12 12 12 13 14 14 11 10 11 13 13 13 13 14 14 12 10 8 8 7 6 4 3 2 1 1 0 0 1 3 4 6 8 9 11 13 14 16 17 17 18 19 19 20 20 20 19 17 16 14 13 12 11 11 10 9 7 6 5 4 3 2 2 2 1 1 1 2 2 3 5 6 7 7 7 7 8 8 8 8 8 8 8 8 8
11 11 12 13 13 13 14 15 14 13 13 14 14 14 15 15 15 13 12 11 10 9 8 6 5 4 3 3 2 2 1 1 2 4 5 7 8 9 11 12 14 15 15 16 17 18 19 19 19 18 17 15 14 13 12 11 11 10 9 8 7 6 5 5 4 4 4 4 4 4 5 5 6 6 6 7 7 8 8 9 10 10 10 10 11 11 11
11 11 12 13 14 14 15 16 16 15 15 16 16 16 16 16 16 15 14 13 12 11 10 8 7 6 6 5 4 4 3 3 2 3 3 4 6 7 8 9 11 12 13 14 15 16 16 17 18 18 18 17 15 14 12 12 11 10 10 9 8 7 6 5 5 5 5 5 5 6 7 7 8 9 9 10 10 11 12 12 12 12 13 13 13 14 14
Wind_Direction
236 237 241 245 249 263 290 306 310 319 323 326 333 342 353 312 340 110 110 341 121 121 106 89 133 180 213 222 231 243 249 253 256 260 269 274 276 279 281 279 276 274 271 270 273 271 269 274 284 291 290 285 281 279 280 279 268 263 258 243 234 230 224 223 229 235 245 255 257 263 267 256 245 244 250 257 262 266 268 263 263 271 268 268 276 279 284
233 241 245 247 248 252 268 298 313 310 314 329 345 15 25 294 271 144 163 206 145 134 123 101 117 153 181 201 216 225 224 219 224 234 242 253 264 271 274 274 276 277 275 274 274 269 265 271 280 288 291 287 278 270 267 263 254 255 252 238 239 250 243 235 240 247 254 259 259 262 266 264 267 275 281 284 286 288 291 284 277 275 275 278 282 282 284
226 237 239 240 243 244 259 308 315 296 297 312 335 33 58 292 162 157 174 182 148 143 158 167 173 185 190 198 206 211 209 201 200 209 218 232 245 248 254 269 278 279 277 275 273 266 262 269 274 279 284 283 277 268 259 250 240 240 245 238 234 245 250 249 254 255 251 252 258 264 264 269 282 286 278 281 285 284 283 278 274 275 277 279 281 279 275
211 223 228 227 231 240 263 300 305 308 308 299 279 255 232 153 148 158 173 164 138 136 175 203 216 216 208 205 205 207 210 202 199 203 209 220 227 227 237 257 267 270 271 271 270 266 263 264 268 272 275 273 270 266 258 247 235 228 232 236 235 238 243 246 251 254 251 249 250 253 254 258 265 263 260 265 269 268 268 266 263 262 263 267 270 270 269
207 221 236 241 243 251 275 292 308 2 29 198 214 210 197 169 170 180 189 175 151 149 187 212 228 232 225 220 215 214 216 214 212 214 214 218 224 228 233 238 240 247 255 259 259 258 256 256 258 260 263 263 261 259 254 242 231 225 226 232 236 240 245 249 252 254 253 250 249 249 251 257 262 260 255 251 249 254 259 257 252 252 254 258 263 266 267
217 218 231 247 257 243 194 217 290 18 127 225 232 194 171 166 181 186 183 177 167 171 202 217 228 236 235 233 231 229 229 226 223 220 217 214 216 224 229 228 229 236 244 249 251 251 250 249 247 245 248 252 253 251 242 230 225 225 228 233 238 242 246 250 254 255 253 252 251 250 253 258 259 255 249 246 248 252 253 252 251 254 257 261 266 269 271
217 202 205 225 242 194 180 167 153 157 233 282 253 180 167 164 169 172 176 179 176 173 186 201 211 219 221 224 234 241 240 239 237 231 226 223 223 218 218 226 233 239 241 240 241 243 244 244 241 235 230 235 242 239 228 219 220 222 224 227 230 235 240 243 247 249 250 252 253 254 257 258 257 255 253 252 253 252 253 254 255 259 263 266 268 270 273
212 190 186 190 191 187 186 179 170 185 217 231 203 178 167 166 169 174 184 188 182 171 168 174 183 185 191 211 230 241 244 247 249 248 245 243 239 229 214 212 226 239 239 230 225 232 240 243 240 232 223 223 226 226 221 216 216 218 221 224 225 227 232 237 241 245 248 250 253 255 258 259 259 258 255 251 248 247 250 255 260 264 268 270 272 274 276
220 203 192 183 171 176 191 201 206 214 223 224 221 208 185 184 192 198 204 203 190 181 180 182 187 190 201 216 221 225 231 235 240 248 252 251 246 240 236 229 222 229 236 231 226 233 241 242 236 228 226 225 219 216 219 220 219 220 221 222 223 225 229 233 237 242 246 249 251 253 254 256 257 256 250 245 243 245 250 255 259 263 266 269 273 276 277
219 208 196 178 171 187 206 212 217 226 233 237 239 226 204 204 216 220 228 228 216 206 202 202 205 208 212 215 212 210 218 223 227 235 242 245 248 249 251 248 238 234 238 243 245 246 245 240 232 224 223 222 215 212 217 222 224 225 225 226 227 227 230 234 238 242 244 246 249 252 252 253 254 252 249 247 249 252 256 259 261 264 267 270 274 276 278
214 206 198 188 193 199 202 207 213 223 225 219 219 217 204 210 224 229 238 244 242 237 230 225 223 222 223 225 224 221 219 221 225 229 233 238 243 246 248 249 247 244 242 242 245 246 242 237 230 223 220 217 210 207 211 217 219 218 220 228 233 235 238 241 243 244 245 245 245 246 247 248 250 250 250 250 251 254 257 261 264 267 270 273 275 277 277
210 204 197 192 193 183 190 205 210 210 209 203 199 200 194 209 226 236 244 251 256 259 258 255 250 245 241 240 239 236 232 230 230 230 231 234 237 240 242 243 245 247 247 245 246 246 245 242 237 232 228 226 222 216 213 213 213 209 209 216 224 231 236 242 245 247 249 250 249 247 245 245 247 249 250 250 252 254 257 261 264 268 272 275 278 279 279
195 197 186 168 168 175 187 206 209 206 210 210 206 209 215 223 239 255 262 266 272 276 278 279 278 275 271 267 263 258 251 245 242 242 242 243 242 242 242 244 245 247 249 250 252 252 252 252 252 251 249 248 247 239 228 220 216 215 215 216 218 222 228 234 239 243 247 252 254 254 255 254 253 253 251 251 251 253 257 261 265 268 272 275 278 281 282
174 182 169 149 153 181 198 219 224 219 216 212 212 226 239 248 259 266 268 270 273 275 277 279 280 282 283 282 280 279 274 267 260 256 256 257 256 254 253 254 254 252 250 250 251 253 254 255 257 258 257 257 255 249 241 232 227 225 226 226 225 225 226 229 231 235 239 244 249 255 260 262 261 259 258 257 256 256 258 260 262 266 269 273 276 279 281
146 152 150 138 137 200 225 237 245 240 223 215 220 234 248 259 265 267 270 273 275 277 279 281 283 285 287 287 286 285 284 281 276 271 267 264 261 260 258 258 259 259 257 254 251 250 251 253 254 256 256 253 249 245 243 240 236 234 232 230 229 228 227 226 226 228 231 235 241 247 253 257 260 263 264 264 264 264 265 264 265 268 271 274 276 276 277
134 101 92 96 114 132 284 269 282 304 250 231 236 245 256 266 269 272 276 279 282 285 287 288 289 288 287 287 286 285 285 284 282 281 278 275 273 270 267 264 262 261 260 258 255 252 250 252 254 255 255 254 251 247 245 243 241 240 237 235 235 233 231 230 230 232 235 237 239 243 247 252 258 261 263 265 266 268 270 272 273 275 277 278 277 274 272
130 122 114 119 141 140 35 355 347 352 310 272 270 271 276 281 283 284 286 287 288 289 288 288 288 287 285 285 284 285 284 284 284 284 283 282 280 278 276 273 269 266 262 258 255 252 251 252 254 254 255 257 256 255 253 249 246 242 239 238 238 237 236 235 237 239 241 242 243 245 247 250 254 258 260 262 264 266 269 272 274 276 278 278 276 274 273
118 140 144 151 184 227 303 315 317 311 295 288 287 287 287 289 289 290 290 290 290 289 289 288 288 287 287 287 286 286 286 286 287 286 285 284 282 281 279 277 276 273 270 265 260 256 253 253 254 254 254 254 255 255 254 252 249 246 244 242 240 238 237 238 239 241 244 246 247 248 249 252 256 260 262 262 262 264 266 269 272 275 277 277 277 278 278
159 166 169 196 244 269 285 295 300 299 295 294 293 292 290 290 290 292 293 293 294 293 291 290 290 289 290 290 290 290 290 289 288 287 285 283 281 280 279 277 276 275 273 271 269 266 262 259 258 256 255 253 252 253 252 251 249 247 247 248 247 244 241 238 238 240 244 247 249 252 255 259 262 264 264 264 264 266 268 271 274 275 277 279 282 285 284
237 236 238 253 268 281 290 293 296 296 295 294 292 292 294 295 295 297 297 296 295 293 291 291 291 291 292 292 291 291 290 289 288 287 285 284 281 280 279 278 276 274 272 271 271 270 269 267 264 262 259 254 250 250 250 249 248 247 247 248 249 249 247 244 242 242 244 247 250 255 260 263 265 266 266 266 267 269 272 275 276 275 277 283 287 286 281
283 277 275 277 279 282 283 285 290 294 295 295 296 297 298 299 299 298 297 295 293 292 291 292 293 294 294 292 291 290 289 288 288 287 286 285 282 280 279 277 276 274 272 271 270 269 269 269 268 266 264 259 253 249 248 247 245 244 243 244 245 247 247 247 247 248 249 251 253 257 262 264 265 265 265 266 268 271 272 273 272 271 275 283 285 280 275
297 292 291 291 286 281 278 281 289 295 298 298 299 300 300 299 298 298 297 296 294 294 294 294 294 293 292 290 289 289 289 289 290 289 288 286 284 281 279 276 275 273 271 271 271 270 268 268 266 266 265 262 258 253 249 246 244 242 240 240 240 242 243 244 246 248 250 250 252 255 260 263 264 265 265 266 269 271 271 271 271 272 276 281 281 276 274
308 307 306 303 297 293 292 293 297 299 300 300 299 299 299 298 298 298 298 298 297 296 296 296 296 295 294 292 291 290 290 290 291 291 290 288 286 283 279 276 273 271 270 269 269 270 269 267 265 264 263 262 259 255 251 248 244 242 240 239 239 239 241 242 243 244 247 249 250 252 256 259 261 262 263 264 266 268 269 271 274 277 279 279 277 273 272
313 312 309 306 303 300 299 300 301 301 300 300 298 297 297 299 300 300 299 299 298 298 298 300 300 300 298 297 295 293 293 293 292 291 289 286 285 283 280 278 276 274 272 271 269 269 270 269 268 266 264 262 260 258 255 251 246 243 241 240 239 238 239 241 242 242 244 247 249 251 254 257 258 259 260 262 264 267 269 272 274 276 275 272 270 269 269
309 308 307 305 304 302 301 302 302 302 301 301 299 297 298 300 300 300 300 301 301 302 302 303 302 301 300 300 299 297 296 295 293 291 288 286 286 285 283 281 279 277 275 272 270 268 266 267 267 267 265 264 262 260 258 255 251 247 243 241 241 240 239 240 242 243 243 245 247 249 253 255 255 257 259 261 263 266 268 268 268 269 268 265 264 264 265
307 306 305 304 303 302 302 303 303 303 302 301 300 300 299 297 297 300 303 305 304 303 302 302 301 302 302 302 301 300 299 297 295 292 291 290 290 288 285 282 279 276 274 271 269 267 266 265 265 266 265 264 262 260 257 254 252 250 247 244 243 242 241 241 242 243 244 244 246 249 252 254 255 256 258 260 260 261 261 262 262 264 264 262 261 261 262
310 308 306 307 305 303 303 303 303 303 303 303 303 303 301 300 300 301 303 304 304 303 304 305 305 305 306 306 305 304 302 299 297 296 296 295 293 290 286 282 279 276 274 271 269 268 267 266 265 265 265 264 262 259 256 253 251 250 248 246 245 244 243 241 241 242 243 244 247 250 253 255 255 256 257 256 254 253 254 257 260 262 262 261 260 261 261
309 308 309 310 308 305 306 306 306 308 309 308 308 307 306 305 303 301 301 301 302 304 307 309 309 310 311 312 310 308 306 306 307 308 308 306 301 297 292 287 283 279 277 274 273 271 270 269 269 269 269 267 265 261 258 255 253 251 250 247 245 244 242 240 239 239 241 243 244 246 249 251 252 253 252 249 248 249 253 257 259 259 259 259 259 258 255
308 310 313 314 312 310 311 312 314 316 317 313 311 310 309 305 303 302 302 303 304 306 309 312 315 317 322 324 321 317 319 323 324 321 317 314 312 315 319 321 315 302 290 283 280 279 278 277 276 275 274 272 269 265 262 258 256 253 251 248 245 244 242 241 240 239 239 239 239 240 242 244 245 246 245 245 246 249 253 255 254 253 254 254 252 249 244
307 311 315 315 314 313 313 315 318 320 319 315 313 312 310 307 307 307 307 308 309 311 315 319 323 328 334 335 331 326 326 326 325 329 344 7 26 38 43 42 38 29 11 344 320 309 304 298 295 293 290 284 277 270 264 259 255 253 250 247 244 242 240 239 239 238 237 236 235 236 237 238 238 239 241 242 244 247 248 248 247 247 247 246 243 238 229
309 314 316 316 315 314 314 316 318 319 318 316 315 313 312 312 315 317 317 317 317 319 325 329 331 336 343 347 344 336 333 334 351 41 64 66 64 61 57 51 44 34 24 13 357 340 326 316 311 310 308 304 297 285 272 264 258 253 248 244 241 239 236 234 234 233 232 233 234 234 232 232 233 235 236 237 238 239 241 243 242 240 237 235 232 226 217
310 314 317 317 314 315 317 318 317 317 318 316 315 317 319 322 326 328 329 329 328 330 335 338 338 344 354 1 6 8 18 50 78 83 81 76 69 60 50 44 38 30 26 29 26 13 355 340 334 330 326 321 311 292 273 268 266 259 250 243 239 234 229 226 226 226 227 228 230 230 228 228 229 229 229 231 232 231 233 237 235 226 217 213 214 215 213
312 317 321 320 317 320 325 322 318 319 319 319 322 328 332 333 334 336 340 342 340 339 342 343 344 353 5 14 24 43 72 94 97 94 92 87 73 56 47 45 42 37 33 34 30 24 18 15 11 3 355 347 335 302 267 264 265 253 242 240 234 223 217 216 217 217 217 216 217 219 218 217 218 220 221 224 226 227 228 228 221 209 202 201 208 215 217
317 322 325 323 323 332 338 329 320 320 322 329 339 344 342 342 343 347 352 355 348 344 348 350 353 2 12 22 39 68 93 105 104 100 98 89 69 52 47 46 43 40 36 32 28 27 27 25 23 19 15 12 10 18 66 77 78 101 128 150 171 181 188 190 190 191 193 193 196 201 201 198 202 210 215 217 220 221 218 213 207 203 203 206 210 215 219
322 326 328 331 338 344 340 330 324 330 338 347 352 351 350 355 1 8 17 21 13 2 1 3 6 10 15 26 53 84 97 103 103 102 103 96 76 56 48 44 41 40 37 32 30 31 31 28 26 26 26 29 37 61 82 84 82 83 84 88 106 129 145 152 159 168 174 176 181 188 190 189 195 205 209 208 207 205 201 199 199 203 206 206 207 211 215
326 329 332 338 343 338 332 331 341 354 0 1 358 2 14 26 33 39 43 44 42 35 27 23 22 21 21 29 56 90 104 104 101 102 108 109 87 54 45 47 46 41 35 32 34 35 35 33 30 29 32 38 50 69 87 93 93 93 91 89 95 107 119 132 145 157 163 168 176 182 184 183 187 190 189 186 186 186 187 190 194 197 200 201 202 204 204
325 329 335 342 340 328 326 353 2 7 15 18 24 38 48 52 53 54 51 49 50 50 47 43 42 39 34 36 48 73 97 109 107 103 102 100 82 62 55 55 53 46 39 36 36 37 38 38 35 33 36 41 51 63 77 89 96 102 105 104 106 113 121 130 140 149 157 164 170 172 170 168 168 168 169 170 172 175 178 183 187 189 191 193 193 192 191
322 325 331 336 332 320 325 14 22 35 55 57 62 66 64 60 57 56 53 50 50 49 49 49 50 51 50 48 53 63 74 85 96 98 93 86 81 76 70 62 57 54 51 46 41 41 43 42 39 38 42 48 53 60 69 79 88 94 98 101 107 116 125 133 140 146 149 151 152 151 151 151 151 152 154 155 157 159 161 167 173 180 183 184 183 182 185
313 317 320 322 319 311 299 71 71 111 106 87 81 78 68 60 59 55 52 51 49 47 47 50 52 53 57 60 65 72 76 79 82 84 81 79 77 75 73 68 63 58 55 51 46 45 47 46 42 41 47 55 59 62 67 75 84 91 96 98 100 104 108 114 120 125 127 128 129 130 131 132 132 133 135 137 140 143 148 157 168 175 178 179 179 178 180
308 308 307 306 312 303 223 157 155 159 147 118 98 94 79 67 64 57 51 50 49 46 47 52 54 57 59 62 66 73 78 78 75 69 64 65 71 75 76 78 74 65 57 54 49 46 49 51 49 47 50 56 60 63 67 72 77 85 93 97 97 97 99 101 103 106 109 111 114 116 118 120 122 125 129 134 140 146 152 160 167 170 171 170 167 164 164
303 299 290 287 294 279 220 181 172 172 167 151 127 121 100 78 70 60 51 50 50 48 48 51 55 59 62 63 63 66 69 70 68 64 57 56 69 80 84 85 84 78 70 62 54 48 49 54 54 53 53 56 58 61 66 72 77 83 91 95 96 96 99 102 104 107 110 113 115 117 120 123 128 133 137 141 144 148 150 152 153 154 155 152 148 146 148
291 284 271 264 267 249 205 188 186 185 179 170 162 164 145 101 82 68 54 51 51 49 50 53 55 56 59 60 60 60 61 62 63 63 59 57 61 67 69 70 73 75 73 69 64 59 58 58 59 59 59 58 59 60 63 68 75 85 94 98 98 98 100 103 107 110 113 116 118 119 120 122 125 129 132 134 135 137 137 136 136 138 140 141 141 144 146
283 270 250 243 249 241 208 192 193 191 186 179 177 184 190 181 132 91 67 59 57 55 55 57 57 56 58 59 59 59 60 60 61 61 60 57 54 52 52 54 56 58 59 60 62 65 67 66 67 68 66 63 63 64 63 63 68 76 86 94 96 96 97 99 101 103 106 109 111 111 110 111 115 119 122 123 124 125 124 124 125 129 133 136 139 141 143
278 263 244 238 243 238 214 194 196 196 192 186 178 177 192 207 197 153 107 88 81 72 64 61 59 58 58 60 62 63 63 63 63 62 61 58 55 53 53 53 53 53 54 55 57 59 60 63 70 79 81 77 73 72 70 67 66 69 74 79 84 89 93 96 98 99 101 105 107 107 105 105 108 113 117 120 122 123 123 123 124 125 128 132 136 139 142
269 254 241 237 238 236 224 206 204 205 199 191 181 176 187 199 193 168 142 126 114 99 84 74 69 65 62 63 65 65 64 62 61 59 57 56 55 56 56 56 55 53 53 53 53 55 57 58 61 68 78 85 85 85 85 84 83 82 79 77 81 89 97 104 108 110 110 110 111 111 110 112 116 122 126 128 128 129 129 130 131 132 134 138 142 144 149
257 245 238 235 235 238 237 224 212 210 205 194 184 180 187 192 184 166 148 135 128 120 110 98 87 78 72 69 67 64 63 61 59 58 59 60 61 60 59 59 57 55 53 51 49 49 51 54 57 60 63 67 70 75 82 90 96 100 97 91 95 109 120 124 123 121 119 121 124 126 125 126 133 139 141 141 142 142 141 141 142 143 144 145 146 147 151
254 242 236 233 234 239 243 237 221 215 209 198 187 184 190 192 183 170 159 151 144 139 134 125 112 98 85 76 69 64 62 61 59 57 57 58 60 60 60 59 58 57 55 53 51 48 47 48 49 51 53 53 54 58 61 64 68 74 75 69 74 96 116 130 139 147 152 157 158 157 152 150 152 153 154 155 156 155 154 154 154 154 156 159 160 158 162
251 242 236 233 232 236 240 240 230 218 209 198 188 187 195 197 187 176 171 169 166 166 161 146 130 117 102 85 71 63 59 57 55 52 50 50 52 53 54 55 56 55 55 54 53 51 50 48 46 45 44 44 44 44 45 45 48 55 60 62 65 74 86 100 121 145 164 173 175 173 170 168 168 170 171 174 176 177 178 180 182 186 192 199 205 217 235
246 236 231 230 230 233 238 238 231 221 212 202 193 193 200 201 192 183 181 186 192 193 188 175 159 146 130 107 83 62 54 51 49 48 46 46 46 45 45 46 48 50 50 50 50 49 49 48 48 46 44 42 40 37 35 34 33 32 29 30 36 47 57 60 69 97 135 163 173 177 177 179 182 184 188 192 195 198 202 206 211 218 228 236 243 253 262
245 236 231 227 226 231 237 238 234 229 223 214 205 203 206 206 199 191 188 195 206 211 210 206 202 202 192 183 212 342 28 34 34 36 39 40 40 39 40 39 39 41 44 46 46 45 45 45 45 45 44 43 41 37 34 30 29 26 23 19 14 8 359 344 322 296 281 269 250 232 220 214 209 206 207 208 210 213 219 224 228 234 240 246 252 258 263
244 239 238 234 228 229 234 238 237 234 231 225 218 214 213 211 207 201 198 201 209 215 216 215 220 230 236 236 244 265 287 318 354 11 21 25 26 28 31 32 32 33 35 38 41 42 42 42 41 41 40 40 39 37 35 32 29 27 25 24 19 10 357 339 324 310 298 286 279 274 269 264 260 255 250 245 241 239 239 240 241 243 246 250 254 259 263
246 241 239 236 232 228 231 234 235 234 233 231 226 222 220 218 215 211 208 209 213 217 219 220 223 231 238 242 247 257 266 277 302 329 347 3 11 13 16 21 25 25 25 27 31 36 38 39 38 38 37 36 34 32 30 29 28 26 25 24 23 18 9 353 336 323 312 298 285 277 272 269 269 269 268 265 262 260 260 260 260 261 262 264 265 267 269
Height
3066 3067 3068 3069 3071 3071 3071 3072 3072 3073 3074 3074 3075 3076 3076 3077 3078 3078 3079 3079 3080 3081 3081 3080 3080 3080 3079 3079 3080 3081 3081 3081 3082 3082 3083 3083 3083 3084 3084 3085 3085 3086 3087 3088 3088 3089 3089 3089 3089 3089 3089 3090 3090 3090 3090 3091 3091 3092 3092 3092 3093 3095 3095 3095 3096 3098 3100 3102 3103 3104 3103 3103 3104 3105 3106 3109 3109 3108 3108 3108 3109 3111 3113 3113 3114 3115 3115
3065 3066 3067 3068 3069 3070 3070 3070 3071 3072 3073 3073 3074 3075 3075 3076 3076 3077 3077 3077 3079 3079 3079 3078 3077 3078 3078 3078 3078 3079 3079 3080 3080 3080 3081 3082 3082 3082 3082 3082 3082 3082 3083 3084 3085 3086 3087 3087 3087 3088 3088 3088 3088 3089 3089 3089 3090 3091 3091 3092 3093 3094 3094 3094 3096 3098 3099 3099 3100 3101 3101 3103 3104 3104 3105 3107 3108 3107 3107 3108 3108 3109 3110 3111 3111 3112 3113
3064 3064 3065 3066 3067 3068 3069 3069 3070 3071 3071 3072 3073 3074 3074 3075 3075 3075 3075 3076 3077 3078 3077 3076 3076 3076 3076 3077 3077 3078 3078 3078 3079 3079 3080 3080 3081 3081 3081 3081 3080 3080 3081 3081 3082 3083 3084 3084 3085 3086 3086 3087 3087 3087 3087 3088 3089 3089 3090 3090 3091 3092 3093 3094 3095 3097 3097 3097 3097 3099 3101 3102 3102 3102 3104 3105 3105 3105 3106 3107 3107 3107 3108 3109 3109 3110 3111
3062 3063 3064 3065 3066 3066 3067 3067 3068 3068 3068 3070 3071 3071 3072 3073 3074 3075 3075 3075 3076 3076 3075 3075 3075 3075 3075 3076 3077 3077 3077 3077 3078 3078 3079 3079 3080 3080 3080 3079 3079 3078 3078 3079 3079 3080 3081 3082 3083 3084 3085 3085 3085 3085 3086 3086 3087 3087 3088 3088 3089 3089 3090 3091 3092 3093 3094 3095 3096 3098 3100 3101 3101 3102 3103 3103 3103 3104 3104 3105 3105 3106 3106 3107 3107 3108 3109
3061 3062 3063 3063 3064 3065 3066 3066 3067 3067 3067 3069 3070 3070 3070 3071 3072 3073 3073 3074 3074 3074 3074 3074 3073 3073 3073 3074 3075 3075 3075 3075 3076 3076 3077 3077 3078 3078 3078 3078 3077 3077 3076 3076 3076 3076 3077 3079 3080 3082 3083 3083 3084 3084 3084 3085 3085 3085 3085 3085 3086 3086 3087 3088 3088 3089 3090 3091 3093 3096 3097 3098 3099 3100 3100 3100 3101 3102 3102 3103 3103 3104 3105 3105 3105 3106 3106
3060 3060 3061 3062 3064 3065 3066 3066 3066 3067 3067 3068 3068 3069 3069 3070 3070 3071 3071 3072 3073 3072 3072 3073 3072 3071 3071 3071 3072 3073 3073 3073 3073 3074 3074 3074 3075 3076 3076 3076 3075 3074 3074 3073 3073 3073 3074 3075 3076 3078 3080 3081 3081 3082 3082 3083 3082 3082 3082 3082 3082 3083 3083 3084 3085 3085 3086 3088 3090 3092 3093 3094 3095 3096 3096 3097 3098 3099 3100 3100 3101 3101 3101 3101 3102 3102 3102
3059 3059 3061 3062 3063 3064 3065 3065 3065 3066 3066 3066 3067 3067 3068 3068 3068 3069 3069 3070 3071 3070 3070 3071 3071 3070 3069 3069 3070 3070 3071 3071 3071 3071 3071 3071 3072 3073 3073 3074 3074 3073 3072 3070 3070 3070 3070 3071 3072 3073 3075 3076 3078 3078 3079 3079 3079 3079 3079 3080 3080 3080 3081 3081 3082 3083 3084 3086 3087 3089 3090 3091 3091 3092 3093 3094 3094 3095 3096 3096 3096 3097 3097 3097 3097 3098 3098
3058 3058 3059 3060 3061 3061 3063 3064 3064 3065 3065 3065 3066 3066 3067 3067 3067 3067 3067 3068 3068 3069 3069 3069 3070 3069 3068 3068 3069 3069 3069 3068 3068 3068 3069 3069 3070 3070 3070 3070 3072 3072 3070 3067 3065 3066 3068 3068 3069 3069 3069 3071 3073 3074 3075 3076 3076 3076 3077 3077 3078 3078 3078 3079 3080 3080 3082 3083 3084 3086 3087 3087 3088 3088 3089 3089 3090 3091 3091 3092 3092 3093 3093 3093 3093 3094 3095
3055 3055 3056 3058 3059 3060 3060 3061 3062 3063 3063 3063 3064 3064 3066 3066 3066 3066 3066 3065 3066 3067 3067 3068 3068 3068 3067 3067 3067 3067 3067 3067 3067 3067 3067 3067 3067 3066 3066 3067 3067 3068 3067 3066 3065 3065 3065 3066 3066 3066 3066 3066 3068 3070 3071 3072 3073 3074 3073 3074 3074 3075 3075 3076 3077 3077 3078 3079 3080 3082 3083 3083 3084 3084 3085 3085 3086 3087 3087 3088 3089 3089 3090 3090 3090 3091 3092
3051 3053 3054 3055 3057 3057 3056 3057 3058 3060 3060 3061 3061 3062 3063 3064 3065 3064 3064 3063 3064 3064 3065 3065 3066 3066 3066 3066 3065 3065 3065 3066 3066 3065 3065 3065 3064 3064 3063 3063 3063 3064 3064 3064 3064 3063 3063 3062 3062 3062 3062 3063 3064 3065 3066 3067 3069 3070 3070 3070 3071 3071 3072 3073 3073 3074 3075 3076 3077 3078 3079 3080 3080 3081 3082 3082 3083 3083 3084 3085 3085 3086 3086 3087 3088 3088 3089
3048 3049 3050 3051 3052 3052 3053 3054 3056 3057 3058 3059 3060 3061 3062 3062 3062 3062 3061 3061 3061 3061 3062 3063 3063 3064 3064 3064 3064 3064 3064 3064 3065 3064 3063 3063 3062 3062 3061 3060 3061 3061 3060 3061 3061 3061 3061 3060 3060 3059 3059 3059 3059 3060 3061 3062 3063 3065 3067 3067 3067 3067 3068 3069 3069 3070 3071 3072 3074 3074 3075 3076 3077 3078 3079 3079 3080 3080 3081 3081 3082 3082 3083 3084 3084 3085 3086
3045 3046 3047 3048 3049 3050 3050 3052 3053 3055 3056 3057 3058 3059 3060 3059 3059 3059 3059 3059 3059 3059 3060 3060 3061 3062 3062 3061 3062 3062 3063 3063 3063 3062 3062 3061 3060 3059 3059 3058 3058 3058 3058 3058 3058 3058 3058 3059 3058 3058 3058 3059 3058 3058 3058 3059 3060 3061 3062 3063 3064 3064 3064 3064 3065 3066 3067 3068 3069 3070 3072 3073 3074 3075 3075 3076 3077 3077 3078 3078 3078 3079 3079 3080 3080 3081 3081
3043 3044 3045 3046 3047 3048 3049 3050 3051 3052 3054 3055 3056 3056 3057 3057 3057 3057 3058 3058 3057 3057 3058 3058 3058 3058 3058 3058 3058 3059 3060 3060 3060 3060 3059 3059 3059 3058 3058 3057 3057 3056 3056 3055 3055 3055 3055 3056 3055 3055 3056 3057 3058 3058 3058 3058 3058 3059 3059 3060 3060 3061 3061 3061 3062 3062 3063 3064 3065 3065 3067 3069 3070 3071 3072 3073 3074 3074 3074 3074 3075 3076 3076 3076 3076 3077 3077
3043 3043 3044 3045 3046 3047 3047 3048 3049 3050 3052 3053 3053 3054 3055 3056 3056 3056 3056 3056 3055 3055 3055 3055 3055 3055 3055 3055 3054 3055 3055 3056 3056 3056 3056 3056 3056 3056 3056 3055 3055 3054 3054 3053 3053 3053 3053 3052 3052 3052 3052 3052 3053 3054 3055 3055 3056 3056 3057 3058 3058 3058 3058 3058 3059 3059 3060 3061 3061 3062 3063 3064 3065 3066 3068 3069 3070 3070 3071 3071 3072 3072 3073 3073 3073 3074 3074
3042 3043 3044 3045 3046 3046 3046 3046 3047 3049 3050 3051 3052 3053 3054 3054 3054 3054 3054 3053 3052 3052 3052 3052 3052 3052 3051 3051 3050 3050 3050 3050 3050 3051 3051 3051 3051 3051 3051 3051 3051 3050 3050 3050 3050 3050 3050 3050 3050 3049 3048 3048 3049 3049 3050 3051 3052 3052 3053 3054 3054 3054 3054 3054 3055 3056 3057 3058 3058 3059 3059 3060 3061 3062 3063 3063 3064 3065 3066 3067 3068 3068 3069 3069 3070 3070 3070
3042 3043 3044 3045 3046 3045 3045 3045 3046 3047 3048 3049 3050 3051 3052 3052 3052 3052 3051 3050 3050 3050 3049 3049 3049 3048 3047 3046 3045 3044 3044 3044 3044 3044 3044 3044 3044 3044 3045 3045 3045 3044 3044 3044 3044 3045 3046 3046 3046 3045 3045 3045 3045 3045 3045 3047 3047 3048 3048 3049 3049 3050 3050 3050 3051 3052 3053 3054 3055 3056 3056 3057 3057 3058 3059 3059 3060 3060 3060 3061 3062 3063 3063 3065 3066 3066 3066
3042 3043 3044 3045 3045 3045 3045 3045 3045 3046 3047 3048 3049 3050 3050 3050 3050 3049 3049 3048 3048 3047 3046 3045 3045 3044 3043 3042 3041 3039 3039 3038 3038 3037 3037 3037 3036 3036 3036 3036 3036 3036 3036 3037 3037 3037 3038 3039 3039 3039 3039 3039 3040 3040 3041 3042 3042 3042 3043 3043 3044 3044 3045 3046 3047 3048 3049 3050 3051 3052 3052 3053 3054 3055 3055 3056 3056 3056 3056 3056 3057 3058 3059 3060 3061 3061 3061
3043 3043 3044 3044 3045 3045 3045 3045 3045 3046 3047 3047 3048 3048 3047 3047 3046 3046 3046 3045 3044 3044 3042 3041 3040 3039 3038 3037 3036 3035 3034 3033 3032 3032 3031 3031 3030 3029 3029 3029 3028 3028 3028 3028 3029 3029 3030 3030 3031 3031 3032 3032 3032 3033 3035 3036 3037 3037 3037 3037 3038 3038 3039 3040 3041 3043 3044 3045 3046 3047 3048 3048 3050 3051 3051 3052 3052 3052 3052 3052 3053 3053 3054 3055 3055 3056 3056
3044 3044 3044 3044 3045 3045 3045 3045 3045 3045 3045 3045 3045 3045 3044 3043 3043 3042 3042 3041 3040 3039 3037 3036 3035 3034 3033 3031 3030 3029 3028 3028 3027 3026 3025 3025 3024 3023 3023 3022 3022 3021 3021 3021 3021 3021 3021 3022 3023 3023 3023 3024 3025 3026 3027 3029 3029 3030 3030 3031 3031 3032 3033 3034 3035 3037 3038 3039 3040 3041 3042 3043 3044 3045 3046 3046 3047 3047 3048 3048 3048 3049 3049 3049 3050 3050 3051
3044 3044 3044 3044 3044 3044 3044 3044 3044 3044 3043 3043 3042 3041 3040 3040 3039 3038 3038 3037 3035 3034 3032 3031 3030 3029 3028 3027 3025 3024 3023 3022 3020 3020 3019 3018 3017 3017 3016 3015 3015 3014 3014 3014 3013 3013 3013 3014 3015 3015 3015 3016 3017 3018 3020 3021 3022 3022 3023 3024 3025 3026 3028 3029 3030 3031 3032 3033 3035 3036 3037 3038 3039 3040 3040 3041 3042 3043 3043 3044 3044 3044 3044 3045 3045 3046 3046
3042 3043 3043 3044 3044 3043 3043 3043 3042 3041 3040 3039 3039 3038 3037 3036 3035 3034 3033 3032 3031 3029 3027 3026 3025 3024 3023 3022 3020 3018 3017 3015 3014 3013 3012 3011 3010 3009 3009 3008 3008 3007 3007 3007 3006 3006 3006 3007 3006 3007 3008 3009 3010 3011 3012 3013 3014 3015 3016 3017 3018 3020 3022 3023 3025 3026 3027 3028 3029 3031 3032 3033 3034 3034 3035 3036 3037 3038 3039 3039 3040 3040 3040 3040 3041 3041 3041
3041 3041 3041 3042 3042 3042 3041 3041 3040 3039 3038 3037 3036 3035 3034 3033 3031 3030 3029 3028 3027 3025 3023 3022 3020 3019 3018 3016 3014 3013 3011 3010 3008 3006 3005 3003 3002 3002 3001 3001 3001 3000 3000 3000 2999 2999 2999 3000 2999 2999 3000 3001 3002 3004 3005 3006 3007 3008 3009 3010 3011 3013 3015 3017 3019 3020 3021 3022 3023 3025 3026 3027 3028 3029 3030 3031 3033 3034 3034 3034 3035 3035 3036 3036 3036 3036 3036
3039 3039 3039 3039 3039 3038 3038 3038 3037 3036 3035 3034 3033 3032 3031 3029 3028 3026 3025 3023 3022 3021 3019 3017 3015 3013 3012 3010 3009 3007 3006 3004 3002 3000 2998 2996 2995 2994 2994 2993 2993 2993 2993 2993 2992 2992 2992 2992 2992 2992 2992 2993 2994 2995 2997 2998 2999 3001 3002 3003 3005 3006 3008 3010 3012 3013 3014 3016 3017 3019 3021 3022 3023 3024 3025 3026 3028 3029 3029 3030 3030 3030 3031 3031 3032 3032 3032
3037 3037 3037 3036 3036 3035 3035 3034 3034 3032 3032 3031 3029 3028 3027 3026 3024 3022 3021 3019 3018 3016 3015 3013 3011 3008 3006 3005 3003 3001 3000 2998 2996 2994 2992 2990 2988 2987 2986 2986 2985 2986 2986 2986 2986 2985 2985 2985 2985 2985 2985 2986 2987 2988 2989 2990 2991 2992 2993 2995 2997 2999 3001 3004 3005 3007 3008 3009 3011 3013 3015 3016 3018 3019 3020 3021 3023 3024 3025 3026 3026 3026 3026 3027 3027 3028 3028
3036 3036 3035 3034 3034 3033 3032 3031 3030 3029 3028 3027 3026 3025 3024 3022 3020 3019 3017 3015 3014 3012 3010 3008 3006 3004 3002 3000 2998 2996 2994 2992 2990 2988 2985 2983 2982 2981 2980 2979 2979 2979 2979 2979 2978 2978 2978 2977 2977 2977 2978 2979 2980 2980 2981 2982 2982 2983 2984 2986 2988 2990 2993 2996 2999 3001 3002 3004 3005 3007 3009 3011 3012 3014 3015 3017 3018 3020 3020 3021 3021 3022 3022 3023 3023 3024 3024
3034 3034 3033 3032 3031 3030 3029 3028 3027 3026 3025 3024 3023 3022 3020 3019 3017 3015 3014 3012 3010 3008 3006 3004 3002 3000 2998 2996 2994 2991 2989 2987 2984 2982 2979 2977 2976 2974 2973 2972 2972 2971 2971 2971 2971 2971 2971 2970 2970 2970 2970 2971 2972 2973 2973 2974 2974 2974 2976 2977 2979 2982 2985 2988 2991 2994 2996 2998 2999 3000 3003 3005 3007 3009 3011 3012 3014 3015 3016 3016 3017 3018 3018 3019 3019 3020 3021
3032 3031 3031 3030 3029 3028 3026 3025 3024 3023 3022 3021 3020 3018 3017 3015 3014 3012 3011 3009 3006 3004 3002 3000 2998 2996 2995 2992 2989 2987 2984 2981 2979 2976 2974 2971 2969 2967 2966 2964 2964 2964 2964 2964 2965 2964 2964 2964 2964 2963 2964 2964 2965 2965 2965 2965 2965 2966 2967 2969 2971 2973 2977 2980 2983 2987 2990 2992 2993 2995 2997 2999 3001 3004 3006 3008 3009 3010 3011 3012 3013 3013 3014 3015 3016 3017 3017
3030 3029 3028 3028 3026 3025 3024 3023 3021 3020 3019 3018 3016 3015 3013 3011 3010 3008 3007 3005 3003 3001 2999 2997 2995 2993 2991 2988 2985 2983 2980 2977 2975 2972 2970 2968 2965 2963 2961 2959 2959 2959 2959 2960 2960 2959 2959 2959 2958 2958 2958 2958 2958 2957 2957 2957 2958 2959 2960 2962 2964 2966 2969 2972 2975 2979 2983 2985 2987 2989 2992 2994 2997 2999 3001 3003 3004 3005 3007 3007 3008 3009 3010 3011 3012 3013 3014
3027 3027 3026 3025 3024 3022 3021 3020 3018 3017 3016 3015 3013 3012 3010 3009 3007 3005 3003 3002 3000 2998 2997 2995 2993 2990 2988 2985 2982 2979 2977 2975 2973 2971 2969 2966 2964 2961 2959 2957 2956 2956 2957 2957 2957 2956 2956 2955 2954 2953 2952 2952 2951 2951 2950 2950 2951 2952 2953 2955 2956 2959 2962 2965 2968 2972 2976 2979 2981 2984 2987 2989 2992 2994 2996 2998 3000 3001 3002 3003 3004 3006 3007 3008 3009 3010 3011
3026 3025 3024 3023 3021 3020 3019 3017 3016 3015 3014 3012 3011 3010 3008 3006 3005 3003 3001 2999 2998 2996 2994 2993 2991 2988 2985 2982 2979 2977 2976 2974 2972 2970 2968 2966 2964 2961 2959 2958 2957 2957 2956 2956 2955 2955 2953 2952 2950 2949 2948 2947 2946 2945 2944 2944 2944 2945 2947 2948 2950 2952 2955 2958 2962 2965 2969 2972 2975 2978 2981 2984 2987 2989 2992 2994 2996 2997 2999 3000 3001 3003 3003 3005 3006 3007 3008
3024 3023 3022 3021 3019 3018 3016 3015 3014 3013 3012 3011 3009 3008 3006 3004 3002 3001 2999 2997 2996 2994 2993 2991 2988 2986 2983 2980 2978 2977 2975 2974 2972 2971 2969 2966 2964 2963 2962 2961 2960 2959 2958 2957 2956 2954 2952 2950 2948 2946 2944 2942 2941 2940 2939 2939 2939 2940 2941 2942 2944 2946 2949 2952 2955 2959 2963 2966 2970 2973 2976 2979 2982 2985 2988 2990 2992 2994 2995 2997 2998 3000 3001 3002 3003 3005 3006
3023 3021 3020 3018 3017 3015 3014 3013 3012 3012 3011 3009 3008 3006 3004 3002 3001 2999 2998 2996 2994 2993 2991 2989 2987 2985 2982 2980 2978 2976 2975 2974 2973 2972 2969 2967 2966 2966 2965 2964 2963 2961 2960 2959 2957 2955 2953 2950 2947 2944 2941 2939 2937 2936 2935 2935 2935 2936 2936 2938 2939 2941 2944 2947 2950 2954 2958 2962 2965 2969 2972 2975 2979 2982 2985 2987 2989 2991 2993 2995 2996 2997 2998 3000 3001 3003 3004
3021 3020 3018 3016 3014 3013 3012 3012 3011 3010 3009 3008 3007 3005 3003 3001 2999 2998 2996 2995 2993 2992 2990 2988 2986 2984 2981 2979 2978 2976 2975 2975 2974 2972 2970 2969 2969 2969 2968 2966 2965 2964 2962 2960 2959 2956 2954 2951 2947 2944 2940 2937 2934 2933 2933 2933 2933 2933 2933 2934 2935 2936 2939 2943 2946 2951 2955 2958 2962 2966 2969 2972 2976 2979 2982 2984 2986 2988 2990 2992 2994 2995 2997 2998 3000 3001 3003
3019 3018 3016 3015 3013 3012 3011 3011 3010 3010 3009 3007 3006 3004 3002 3001 2999 2997 2996 2995 2993 2991 2989 2988 2986 2983 2981 2979 2978 2977 2976 2975 2974 2973 2972 2971 2971 2971 2970 2968 2967 2966 2964 2962 2961 2958 2955 2951 2948 2944 2941 2937 2934 2933 2932 2932 2933 2933 2933 2933 2933 2934 2937 2941 2945 2949 2953 2957 2960 2964 2967 2970 2974 2977 2979 2981 2983 2986 2988 2990 2992 2994 2995 2997 2998 3000 3001
3017 3016 3014 3013 3012 3011 3011 3010 3010 3009 3008 3007 3005 3004 3002 3000 2999 2997 2996 2995 2993 2991 2989 2988 2986 2983 2981 2980 2979 2978 2977 2976 2975 2974 2973 2973 2973 2972 2971 2970 2969 2968 2966 2965 2963 2960 2956 2953 2950 2947 2943 2939 2936 2935 2935 2935 2935 2935 2935 2934 2935 2936 2938 2941 2945 2949 2953 2957 2960 2964 2967 2969 2972 2975 2977 2979 2981 2984 2986 2989 2991 2993 2994 2996 2997 2998 3000
3016 3014 3013 3012 3011 3011 3010 3010 3010 3009 3008 3006 3005 3004 3002 3000 2999 2998 2997 2995 2994 2992 2990 2988 2986 2984 2982 2980 2979 2979 2978 2977 2976 2976 2975 2975 2975 2974 2973 2972 2971 2970 2969 2968 2965 2962 2959 2956 2953 2951 2948 2944 2940 2938 2938 2938 2938 2938 2938 2939 2939 2940 2942 2944 2948 2951 2954 2957 2960 2963 2966 2969 2971 2974 2976 2978 2981 2983 2986 2988 2990 2992 2994 2995 2996 2998 2999
3014 3013 3012 3011 3011 3010 3010 3010 3009 3009 3008 3007 3005 3004 3003 3002 3000 2999 2998 2996 2994 2993 2991 2989 2987 2985 2983 2981 2980 2979 2979 2978 2978 2978 2977 2977 2977 2976 2975 2974 2974 2973 2971 2970 2967 2965 2962 2960 2958 2955 2953 2949 2946 2943 2942 2942 2942 2942 2942 2943 2943 2944 2946 2948 2950 2953 2956 2958 2961 2963 2966 2968 2971 2973 2976 2979 2981 2984 2986 2988 2990 2991 2993 2994 2996 2997 2999
3013 3012 3012 3011 3011 3010 3010 3009 3009 3009 3008 3007 3006 3005 3004 3003 3002 3000 2999 2997 2996 2994 2992 2990 2988 2987 2985 2984 2982 2981 2980 2980 2980 2980 2980 2980 2979 2978 2978 2977 2976 2975 2973 2971 2970 2968 2965 2964 2962 2960 2958 2955 2952 2950 2948 2947 2947 2946 2947 2947 2948 2949 2950 2951 2953 2955 2957 2960 2962 2965 2967 2970 2972 2975 2977 2980 2982 2984 2986 2988 2990 2991 2992 2994 2996 2997 2998
3012 3012 3011 3010 3010 3010 3009 3009 3009 3009 3008 3008 3007 3006 3005 3004 3003 3001 3000 2999 2997 2996 2994 2992 2990 2989 2988 2987 2986 2984 2983 2983 2983 2983 2983 2982 2981 2981 2980 2979 2978 2976 2974 2973 2972 2971 2969 2967 2966 2965 2962 2960 2959 2957 2956 2955 2954 2953 2953 2953 2954 2955 2956 2957 2958 2960 2962 2964 2966 2968 2970 2973 2975 2977 2979 2981 2983 2985 2987 2988 2990 2991 2993 2994 2996 2997 2998
3011 3011 3010 3010 3009 3009 3009 3009 3009 3009 3009 3008 3007 3007 3006 3005 3004 3003 3002 3001 2999 2998 2996 2995 2993 2991 2990 2989 2988 2987 2986 2986 2986 2985 2985 2984 2983 2983 2982 2981 2979 2977 2976 2976 2975 2974 2972 2971 2970 2969 2967 2965 2964 2963 2962 2962 2961 2960 2959 2959 2960 2960 2961 2962 2963 2965 2966 2968 2970 2972 2974 2976 2977 2979 2981 2983 2985 2986 2987 2989 2990 2992 2993 2994 2995 2996 2997
3010 3010 3009 3009 3009 3008 3008 3008 3009 3009 3009 3008 3008 3007 3007 3006 3005 3004 3003 3002 3001 3000 2999 2997 2996 2994 2993 2992 2991 2990 2989 2988 2987 2987 2986 2986 2985 2984 2983 2982 2980 2979 2979 2978 2977 2976 2975 2974 2973 2972 2971 2969 2968 2967 2967 2967 2966 2966 2965 2965 2966 2966 2967 2968 2968 2969 2971 2972 2974 2976 2977 2979 2980 2982 2983 2984 2986 2987 2988 2990 2991 2992 2993 2994 2994 2995 2996
3009 3009 3008 3008 3008 3008 3008 3008 3008 3009 3009 3008 3008 3008 3008 3007 3007 3006 3005 3004 3003 3002 3001 3000 2998 2997 2996 2994 2993 2992 2991 2990 2989 2989 2988 2988 2987 2986 2985 2983 2981 2981 2980 2980 2979 2978 2978 2977 2976 2975 2974 2973 2972 2972 2971 2971 2971 2971 2971 2971 2971 2971 2972 2973 2973 2974 2975 2977 2978 2979 2980 2981 2982 2983 2984 2986 2987 2988 2989 2990 2991 2991 2992 2993 2994 2995 2996
3007 3007 3007 3007 3007 3007 3007 3007 3008 3008 3008 3008 3008 3008 3008 3008 3007 3007 3006 3005 3004 3003 3002 3001 3000 2999 2998 2997 2995 2994 2993 2992 2992 2991 2990 2989 2989 2987 2986 2985 2983 2982 2982 2981 2981 2980 2980 2979 2978 2977 2976 2976 2975 2975 2975 2975 2975 2974 2975 2975 2975 2975 2976 2977 2977 2978 2979 2979 2980 2981 2982 2983 2984 2984 2985 2986 2987 2988 2989 2990 2991 2991 2992 2993 2994 2995 2996
3006 3006 3006 3006 3006 3006 3006 3006 3007 3007 3008 3008 3008 3008 3008 3008 3008 3007 3007 3006 3006 3005 3004 3003 3002 3001 3000 2999 2998 2997 2996 2995 2994 2993 2992 2991 2990 2989 2988 2987 2985 2984 2983 2983 2982 2982 2982 2981 2980 2979 2979 2979 2978 2978 2978 2978 2978 2978 2978 2978 2978 2978 2979 2979 2980 2980 2981 2981 2982 2983 2983 2984 2985 2986 2986 2987 2988 2989 2989 2990 2991 2992 2993 2994 2995 2996 2997
3005 3005 3005 3005 3005 3005 3005 3006 3006 3006 3007 3007 3007 3007 3008 3008 3008 3008 3008 3007 3007 3006 3006 3005 3004 3003 3002 3001 3000 2999 2998 2997 2996 2995 2994 2993 2992 2991 2990 2988 2987 2986 2985 2984 2984 2984 2983 2982 2982 2981 2981 2981 2981 2980 2980 2980 2980 2980 2981 2981 2981 2981 2981 2981 2982 2982 2983 2983 2984 2984 2985 2986 2986 2987 2988 2988 2989 2990 2991 2991 2992 2993 2994 2995 2996 2996 2997
3003 3003 3003 3003 3003 3004 3004 3005 3005 3005 3006 3006 3007 3007 3008 3008 3008 3008 3008 3008 3007 3007 3007 3006 3005 3005 3004 3003 3002 3001 3000 2999 2998 2998 2996 2995 2994 2993 2991 2990 2989 2988 2987 2986 2985 2985 2985 2984 2983 2983 2983 2982 2982 2982 2982 2982 2982 2982 2982 2982 2982 2982 2983 2983 2983 2984 2984 2985 2985 2986 2986 2987 2988 2988 2989 2990 2990 2991 2992 2993 2993 2994 2995 2995 2996 2997 2997
3001 3002 3002 3002 3002 3002 3003 3003 3004 3004 3005 3005 3006 3006 3007 3008 3008 3008 3008 3008 3008 3007 3007 3007 3006 3006 3005 3005 3004 3003 3003 3002 3001 3000 2999 2998 2996 2995 2994 2992 2991 2990 2989 2988 2987 2987 2986 2985 2984 2984 2984 2983 2983 2983 2983 2983 2983 2984 2984 2983 2983 2984 2984 2984 2984 2985 2985 2985 2985 2986 2987 2987 2988 2989 2990 2991 2991 2992 2993 2993 2994 2994 2995 2996 2996 2996 2997
2999 3000 3000 3000 3000 3001 3001 3002 3002 3003 3004 3004 3005 3005 3006 3007 3007 3007 3007 3008 3008 3008 3007 3007 3006 3006 3006 3005 3005 3005 3004 3003 3003 3002 3001 3000 2998 2997 2996 2995 2994 2992 2991 2990 2990 2989 2988 2987 2986 2985 2985 2984 2984 2984 2984 2984 2984 2984 2984 2984 2985 2985 2985 2985 2985 2985 2985 2985 2986 2986 2987 2987 2988 2989 2990 2991 2991 2992 2993 2993 2994 2994 2995 2995 2996 2996 2996
2997 2998 2998 2998 2999 2999 2999 3000 3001 3002 3002 3003 3003 3004 3005 3006 3006 3006 3007 3007 3007 3007 3007 3007 3007 3006 3006 3006 3006 3005 3005 3004 3004 3003 3002 3001 3000 2999 2998 2997 2996 2995 2993 2992 2991 2991 2990 2989 2988 2987 2987 2986 2985 2985 2984 2984 2984 2984 2984 2984 2985 2985 2986 2986 2986 2986 2986 2986 2986 2987 2987 2988 2988 2989 2990 2990 2991 2991 2992 2992 2993 2993 2994 2994 2994 2995 2995
2995 2995 2996 2996 2997 2997 2998 2998 2999 3000 3001 3001 3002 3003 3003 3004 3005 3005 3006 3007 3007 3007 3007 3006 3006 3006 3006 3006 3006 3005 3005 3005 3004 3004 3003 3002 3002 3001 3000 2999 2998 2997 2996 2995 2993 2992 2991 2990 2990 2989 2988 2988 2987 2986 2986 2985 2985 2985 2985 2985 2985 2985 2985 2986 2986 2986 2987 2987 2987 2988 2988 2988 2988 2989 2989 2990 2990 2991 2991 2991 2992 2992 2992 2992 2993 2993 2993
2993 2993 2994 2994 2995 2996 2996 2997 2998 2998 2999 3000 3001 3001 3002 3003 3003 3004 3005 3006 3006 3006 3006 3006 3006 3006 3006 3005 3005 3005 3005 3005 3005 3004 3003 3003 3002 3002 3001 3000 2999 2999 2998 2996 2995 2994 2993 2992 2991 2990 2989 2989 2988 2988 2987 2986 2986 2986 2985 2985 2985 2985 2985 2985 2985 2986 2986 2987 2987 2988 2988 2988 2988 2989 2989 2989 2989 2990 2990 2990 2990 2990 2990 2991 2991 2991 2991
2991 2992 2992 2992 2993 2993 2994 2995 2995 2996 2997 2998 2999 2999 3000 3001 3002 3002 3003 3004 3005 3005 3005 3005 3005 3005 3005 3005 3005 3005 3005 3005 3004 3004 3004 3003 3003 3002 3002 3001 3000 2999 2999 2998 2997 2996 2995 2993 2992 2991 2990 2990 2989 2988 2988 2987 2987 2986 2986 2986 2986 2986 2985 2985 2985 2985 2985 2986 2986 2987 2987 2987 2987 2988 2988 2988 2988 2988 2988 2988 2988 2989 2989 2989 2989 2989 2989